Location: *
(38.9555°S, 57.3572°E)
Time: 01:40:29
(UTC+00:00)

Cosmos 1898 Rocket - Pass Details

Date: 15 July 2020
Orbit: 754 x 783 km, 74.0° (Epoch: 06 August)

Event Time Altitude Azimuth Distance (km) Brightness Sun altitude
Rises 15:12:46 0° 336° (NNW) 3,201 7.2 -23.9°
Reaches altitude 10° 15:15:07 10° 333° (NNW) 2,286 6.4 -24.3°
Maximum altitude 15:20:17 68° 250° (WSW) 829 3.7 -25.3°
Enters shadow 15:22:27 35° 178° (S) 1,223 4.4 -25.7°
